Bangor International

Airport
ICAO code: 
KBGR
Summary
ICAO Region: 
NAM
Territory: 
Location: 
Bangor, Maine,
Coordinates: 
Aerial View: 
44° 48' 26.996" N, 68° 49' 41.002" W
Airport CFIT: 
Altimeter Temperature Error Correction
Airport WX: 
Cumulonimbus
Metar
Observation
KBGR 212253Z 01003KT 10SM CLR M14/M22 A3057 RMK AO2 SLP360 T11441217
Station
Bangor, Bangor International Airport
Date/Time
2022-01-21 22:53:00
Wind direction
10°
Wind speed
03 kts
Lowest cloud amount
n/a
Temperature
-14.4°C
Dew point
-21.7°C
Humidity
53%
Weather condition
n/a

Description

International airport serving Bangor, Maine.

Climatology

Humid Continental climate (Köppen climate classification Dfb) - Variable weather patterns and a large seasonal temperature variance. Summers are often warm and humid with frequent thunderstorms and winters can be very cold with frequent snowfall and persistent snow cover.

Runways

Designator Length Width Surface Rops
15/33 3487 61 ASP Yes/Yes
Airport map: 
Aerial View: 

SKYbrary Partners:

Safety knowledge contributed by: